Wind_Speed
18 17 17 15 14 12 11 11 11 11 12 13 13 11 7 5 3 2 2 3 2 3 3 5 7 8 8 9 8 9 10 10 10
15 14 14 13 12 12 10 10 10 11 10 12 12 11 9 8 6 4 3 3 3 2 2 3 4 6 8 9 9 10 8 7 13
10 11 11 11 11 11 10 10 10 11 12 12 13 11 11 9 9 8 6 5 4 3 3 3 4 6 7 8 8 9 8 7 6
9 10 11 11 11 11 11 11 11 12 13 13 13 11 11 10 10 10 9 8 7 5 4 4 4 5 6 7 8 9 10 9 10
11 10 11 12 11 11 12 13 13 13 13 13 14 12 12 12 13 10 12 11 10 9 8 6 5 6 7 7 7 7 9 10 10
11 11 11 11 11 12 12 13 12 12 12 13 14 13 14 14 14 13 13 13 12 10 10 9 8 7 7 7 7 7 8 8 8
11 11 11 11 11 11 11 13 11 12 12 12 13 13 14 14 13 13 15 15 15 13 13 12 11 10 9 8 8 8 9 9 9
11 12 11 11 12 12 12 13 12 12 13 13 13 12 12 13 12 12 16 17 13 13 13 13 13 13 13 13 13 12 12 12 12
11 12 12 12 13 13 13 13 13 13 13 13 13 12 12 11 13 13 13 15 18 16 13 13 15 14 14 15 16 17 17 17 16
12 12 12 13 13 13 13 14 14 14 14 14 12 12 11 12 13 13 13 14 15 15 16 14 13 14 16 17 18 19 19 19 18
13 13 13 13 13 12 12 13 14 14 14 13 12 12 11 13 12 14 14 14 15 16 18 18 15 15 16 18 19 19 20 20 19
14 14 13 13 12 12 13 14 14 14 13 13 13 12 11 12 12 14 14 14 13 15 16 17 19 17 14 15 16 17 19 21 20
15 14 15 14 14 13 13 13 13 14 14 14 13 12 11 11 12 12 13 13 13 13 15 16 17 18 18 14 16 19 19 20 19
16 15 16 16 15 13 13 13 14 13 13 13 13 12 12 11 11 11 10 10 10 10 11 12 15 16 18 19 17 15 18 21 21
18 17 17 17 16 15 15 14 14 14 14 14 14 13 13 13 12 12 12 12 11 10 10 10 11 13 14 15 13 8 14 15 15
20 19 19 19 18 17 16 15 15 14 14 14 14 14 14 14 14 14 14 14 14 14 14 13 14 14 15 15 16 19 17 13 15
22 21 22 21 20 19 18 17 16 16 16 16 16 16 15 15 16 16 16 16 16 16 16 17 16 17 17 18 19 20 19 16 18
24 24 24 24 23 22 21 20 19 18 18 17 17 17 17 16 17 17 18 18 18 19 19 20 20 20 20 19 19 20 20 19 20
26 26 26 27 27 26 25 24 23 22 21 20 19 19 18 18 18 18 18 19 19 20 20 21 21 22 22 22 22 22 22 21 22
29 29 29 29 28 29 28 28 27 26 25 24 23 23 21 21 20 20 19 20 21 21 21 22 22 22 22 22 23 23 23 23 22
Wind_Direction
249 254 258 257 256 257 252 249 243 238 232 233 236 235 228 221 211 168 152 128 133 155 171 180 189 192 196 200 213 226 242 239 274
245 245 249 251 249 248 241 242 240 236 230 240 247 245 232 221 216 207 195 182 158 160 191 205 218 219 212 226 238 248 264 237 234
242 243 238 239 236 236 237 233 234 233 234 238 245 252 251 233 226 221 217 211 199 198 218 228 226 235 241 238 246 254 254 257 253
238 234 232 234 234 234 236 237 238 238 236 238 241 250 255 238 229 234 229 223 220 217 221 237 250 249 245 246 249 260 267 265 261
242 239 238 234 234 232 234 235 235 236 237 239 243 246 250 245 227 227 238 231 227 226 230 237 247 256 251 252 258 261 268 274 285
238 239 236 236 234 232 232 236 238 237 236 238 238 241 243 247 241 225 230 237 236 235 232 235 241 249 249 253 260 266 269 267 274
239 239 235 236 237 236 237 243 238 240 241 240 240 242 245 247 246 235 233 236 236 239 239 237 237 238 245 255 265 268 271 274 283
236 235 235 234 233 235 237 239 237 237 238 240 243 247 248 258 257 247 236 238 234 234 236 237 236 240 243 252 258 261 267 275 279
234 233 235 233 233 233 233 236 236 237 237 240 242 251 259 264 263 259 242 239 236 239 244 245 245 246 250 251 254 261 265 271 276
239 239 236 236 235 234 233 233 236 236 238 241 243 251 259 262 266 263 259 253 252 247 242 245 249 254 256 259 261 261 264 268 270
236 236 236 234 233 236 235 235 235 237 237 241 241 244 251 258 262 263 260 255 253 252 251 249 249 253 254 257 263 264 265 267 268
237 236 234 235 235 233 233 235 237 237 237 237 235 236 242 253 259 262 263 263 254 254 254 251 245 241 251 257 260 261 259 260 265
237 235 235 234 232 231 233 231 229 229 230 230 231 229 231 237 241 243 245 248 250 248 250 250 251 247 244 243 251 254 258 262 258
240 237 235 235 234 233 231 230 232 230 231 232 232 234 239 241 246 252 254 259 257 250 246 248 250 249 246 246 251 258 261 264 265
241 238 237 237 236 233 233 233 232 233 234 236 237 237 238 242 247 252 256 256 257 258 258 249 246 247 245 243 233 238 261 270 274
241 240 239 237 237 238 236 235 237 239 242 243 244 243 244 244 243 245 247 250 252 255 256 254 252 251 249 249 248 246 263 269 274
240 239 238 238 238 240 239 237 238 239 242 244 244 245 245 246 248 249 249 250 253 255 256 257 256 256 257 257 258 261 262 261 264
242 240 239 240 240 240 239 238 240 243 245 246 247 249 252 252 251 252 252 254 254 254 255 255 255 254 253 253 256 259 263 261 259
243 242 241 240 241 241 241 241 241 243 246 247 250 253 255 256 257 258 258 257 256 256 257 259 258 257 256 256 256 256 257 256 257
245 245 243 242 242 243 245 245 246 247 249 252 252 255 257 259 262 263 264 262 260 259 257 258 260 259 258 257 257 257 256 256 255
Height
3145 3146 3147 3148 3149 3149 3150 3151 3152 3153 3153 3153 3154 3156 3158 3159 3159 3160 3160 3161 3161 3162 3162 3163 3163 3165 3166 3166 3167 3168 3170 3170 3171
3142 3144 3144 3144 3145 3147 3148 3149 3150 3150 3151 3150 3152 3155 3157 3158 3159 3159 3160 3161 3161 3162 3162 3163 3164 3165 3166 3166 3167 3167 3168 3169 3170
3139 3140 3141 3142 3143 3145 3145 3146 3146 3147 3148 3149 3151 3154 3155 3157 3158 3159 3159 3160 3160 3161 3162 3163 3163 3164 3165 3166 3166 3167 3167 3168 3169
3137 3137 3139 3140 3141 3142 3143 3144 3144 3145 3147 3148 3150 3151 3153 3155 3156 3157 3158 3159 3159 3160 3161 3162 3162 3163 3164 3164 3165 3165 3166 3166 3167
3134 3135 3136 3137 3139 3140 3141 3142 3144 3144 3145 3146 3148 3149 3150 3152 3154 3155 3156 3157 3158 3159 3160 3161 3161 3162 3162 3163 3163 3164 3164 3165 3165
3131 3132 3133 3135 3136 3138 3138 3139 3141 3142 3143 3145 3145 3146 3148 3149 3150 3152 3153 3155 3156 3157 3158 3159 3160 3161 3161 3162 3162 3162 3162 3163 3163
3129 3129 3131 3132 3134 3135 3136 3136 3138 3138 3140 3141 3142 3143 3144 3146 3147 3150 3151 3152 3154 3155 3156 3157 3158 3159 3160 3160 3160 3161 3161 3161 3162
3126 3127 3129 3130 3131 3132 3134 3134 3135 3136 3137 3139 3139 3141 3142 3142 3144 3146 3148 3150 3151 3152 3153 3155 3156 3156 3157 3158 3158 3159 3159 3160 3160
3123 3125 3126 3128 3129 3130 3131 3131 3132 3133 3134 3136 3136 3137 3138 3139 3141 3142 3144 3146 3147 3149 3151 3152 3152 3153 3154 3155 3155 3155 3156 3157 3157
3121 3122 3123 3125 3125 3127 3128 3129 3129 3130 3131 3132 3133 3134 3135 3136 3138 3139 3141 3142 3144 3146 3148 3148 3149 3150 3151 3151 3152 3152 3152 3153 3153
3119 3120 3121 3122 3123 3124 3125 3125 3126 3127 3128 3129 3130 3131 3132 3133 3134 3136 3137 3139 3141 3142 3143 3145 3146 3147 3148 3148 3148 3148 3149 3149 3149
3116 3116 3118 3119 3120 3121 3122 3123 3123 3124 3125 3126 3127 3128 3129 3130 3131 3133 3134 3135 3137 3138 3139 3141 3142 3144 3144 3144 3144 3144 3144 3145 3145
3112 3114 3115 3116 3118 3118 3119 3120 3121 3122 3122 3124 3124 3125 3126 3127 3129 3130 3131 3132 3133 3134 3135 3137 3138 3140 3141 3141 3141 3141 3141 3141 3142
3109 3110 3112 3113 3114 3116 3116 3117 3118 3119 3120 3121 3121 3121 3122 3123 3124 3126 3127 3128 3129 3130 3131 3132 3133 3135 3136 3137 3137 3136 3135 3136 3137
3105 3107 3108 3110 3111 3113 3114 3115 3115 3116 3117 3118 3118 3119 3120 3121 3121 3123 3123 3125 3126 3127 3127 3129 3130 3131 3132 3133 3134 3132 3130 3133 3133
3101 3103 3104 3106 3107 3108 3110 3111 3111 3112 3114 3115 3116 3116 3116 3117 3118 3119 3120 3121 3123 3123 3124 3125 3127 3128 3129 3129 3128 3128 3127 3130 3129
3096 3098 3100 3101 3103 3104 3106 3107 3108 3110 3111 3112 3113 3113 3114 3114 3115 3116 3116 3117 3118 3119 3119 3120 3122 3122 3123 3124 3124 3123 3124 3125 3124
3091 3093 3095 3096 3098 3100 3102 3103 3105 3106 3107 3108 3110 3110 3110 3111 3111 3112 3112 3113 3114 3115 3115 3116 3117 3118 3119 3120 3120 3121 3121 3122 3121
3085 3087 3089 3091 3093 3094 3096 3098 3100 3101 3103 3104 3105 3106 3107 3106 3107 3108 3108 3108 3109 3110 3111 3111 3112 3113 3113 3114 3115 3116 3116 3117 3117
3079 3081 3083 3085 3087 3088 3089 3092 3094 3095 3097 3098 3099 3100 3101 3101 3102 3103 3103 3104 3104 3105 3105 3106 3107 3107 3109 3110 3110 3111 3112 3112 3112